Location: *
(46.1278°N, 3.4267°E)
Time: 13:03:30
(UTC+00:00)

Daily predictions for brighter satellites

Satellite Brightness Start Highest point End
(mag) Time Altitude Azimuth Time Altitude Azimuth Time Altitude Azimuth
Okean 2 Rocket 3.1 18:21:40 10° S 18:26:07 80° E 18:30:38 10° N
Okean 1 Rocket 4.2 18:22:56 10° SE 18:26:18 22° E 18:29:41 10° NE
GP-B 3.6 18:25:15 10° NNE 18:29:27 40° E 18:33:37 10° SSE
ATLAS 2AS CENTAUR R/B 3.3 18:22:19 10° NW 18:29:54 51° NE 18:36:54 10° ESE
ADEOS Rocket 4.5 18:24:52 10° NE 18:30:24 23° E 18:36:07 10° SE
H-2A R/B 3.3 18:27:08 10° ESE 18:30:45 21° ENE 18:34:25 10° NNE
Cosmos 1544 4.1 18:31:18 10° SE 18:34:15 24° E 18:37:13 10° NE
Cosmos 2237 Rocket 3.6 18:30:12 10° N 18:34:34 22° NE 18:38:55 10° E
Cosmos 2251 Rocket 3.6 18:29:38 10° NNW 18:35:01 66° ENE 18:40:21 10° SSE
Cosmos 1441 Rocket 4.1 18:34:15 10° SSE 18:37:28 26° E 18:40:42 10° NE
SAR-Lupe-2 4.2 18:35:26 10° NNE 18:38:44 33° E 18:41:59 10° SSE
GEOS 3 Rocket 3.7 18:34:47 10° SE 18:39:54 82° SW 18:45:03 10° NW
Aureole 1 Rocket 3.5 18:38:32 10° NNW 18:44:09 56° ENE 18:48:21 10° SE
MOS 1 4.4 18:39:22 10° SSE 18:44:58 61° ENE 18:50:35 10° N
Timation 2 Rocket 4.1 18:38:55 10° S 18:45:25 60° ESE 18:51:41 10° NE
SJ-6B 3.7 18:43:33 10° SE 18:47:15 33° ENE 18:50:58 10° N
Nadezhda 1 Rocket 4.1 18:41:56 10° SSE 18:47:44 50° E 18:53:34 10° NNE
Cosmos 1939 Rocket 2.9 18:45:46 10° S 18:49:38 78° WSW 18:53:31 10° NNW
Cosmos 1536 Rocket 3.5 18:45:46 10° N 18:50:08 89° E 18:54:28 10° S
Cosmos 2322 Rocket 4.5 18:48:50 10° NW 18:53:23 26° WSW 18:57:55 10° SSW
Cosmos 1025 Rocket 3.0 18:52:36 10° N 18:56:55 89° E 19:01:10 10° S
Cosmos 1707 3.5 18:53:46 10° N 18:57:19 32° ENE 19:00:07 14° SE
ASTEX 1 3.6 18:54:01 10° NNE 18:58:45 46° E 19:03:26 10° SSE
CZ-2C R/B 3.9 18:54:28 10° NNE 18:58:49 47° E 19:03:04 10° S
Meteor 2-15 Rocket 4.4 18:53:49 10° S 18:59:51 64° E 19:05:57 10° NNE
Meteor 2-15 4.4 18:55:21 10° S 19:01:29 80° E 19:07:39 10° N
SL-16 R/B 4.0 18:59:09 10° N 19:02:37 16° NE 19:05:35 11° ENE
Cosmos 2333 4.3 18:57:00 10° NNW 19:02:41 85° WSW 19:08:23 10° SSE
Cosmos 389 Rocket 3.7 19:00:54 10° NNE 19:03:39 22° ENE 19:04:27 20° E
NOSS 0 Rocket 4.3 18:59:25 10° NNW 19:05:25 48° NE 19:10:04 17° SE
Cosmos 1378 4.1 19:02:32 10° NNW 19:06:12 50° W 19:09:50 10° S
CZ-2C R/B 4.2 19:04:05 17° ESE 19:06:55 27° ENE 19:11:24 10° N
Meteor 1-12 Rocket 4.2 19:01:26 10° S 19:07:11 79° E 19:12:53 10° NNE
COSMOS 2428 2.7 19:05:03 10° NNW 19:10:46 80° ENE 19:16:10 11° SSE
Meteor 1-4 Rocket 3.8 19:11:16 10° NNE 19:14:10 22° ENE 19:14:27 22° ENE
Cosmos 2322 4.3 19:09:11 10° NNW 19:14:48 57° WSW 19:20:23 10° S
Cosmos 2219 Rocket 2.1 19:09:36 10° NNW 19:15:14 84° ENE 19:20:22 13° SSE
Cosmos 2341 Rocket 4.2 19:12:32 10° N 19:18:39 51° ENE 19:23:53 14° SSE
Lacrosse 4 Rocket 4.4 19:18:44 10° W 19:20:15 12° WSW 19:21:46 10° SW
Ariane Rocket 4.2 19:15:43 10° S 19:20:32 44° W 19:25:23 10° NNW
Cosmos 2181 Rocket 4.4 19:17:35 10° SSE 19:23:14 38° E 19:29:00 10° NNE
Cosmos 2056 Rocket 4.3 19:20:48 10° SSE 19:25:28 30° E 19:30:09 10° NE
Cosmos 2360 Rocket 4.1 19:20:44 10° NW 19:25:30 29° WSW 19:30:17 10° SSW
FREGAT/IRIS 3.9 19:25:18 10° S 19:27:56 37° W 19:30:36 10° NNW
Cosmos 407 Rocket 3.7 19:28:06 10° NNW 19:33:06 50° ENE 19:35:14 31° ESE
SL-08 RB Rocket 4.0 19:31:35 29° SE 19:33:34 48° ENE 19:38:04 10° N
CZ-2C R/B 4.3 19:31:03 10° NE 19:33:16 17° ENE 19:33:16 17° ENE
Cosmos 2219 3.4 19:30:05 10° S 19:35:33 48° ESE 19:41:04 10° NE
NOSS 3-4 (A) 3.8 19:30:21 10° NW 19:37:21 78° NE 19:42:04 26° SE
NOSS 3-4 (C) 3.8 19:30:28 10° NW 19:37:27 78° NE 19:42:08 26° SE
SPOT 3 Rocket 3.6 19:32:39 10° SSE 19:37:47 79° WSW 19:42:58 10° NNW
Cosmos 1624 Rocket 4.4 19:33:12 10° S 19:37:57 38° ESE 19:42:45 10° NE
Cosmos 2227 Rocket 2.9 19:38:55 29° E 19:38:55 29° E 19:43:21 10° NE
Cosmos 1461 3.2 19:35:46 10° SW 19:39:44 62° NW 19:43:41 10° NNE
Cosmos 1437 Rocket 4.2 19:38:32 10° NNE 19:40:57 23° NE 19:40:57 23° NE
Cosmos 2218 Rocket 4.3 19:35:38 10° N 19:41:48 47° ENE 19:44:33 30° SE
Cosmos 614 Rocket 4.1 19:36:43 10° NNW 19:41:53 57° ENE 19:43:50 35° SE
Cosmos 2154 Rocket 4.3 19:36:59 10° NNW 19:43:07 66° W 19:49:15 10° S
Cosmos 1544 Rocket 4.5 19:44:31 31° ENE 19:44:31 31° ENE 19:47:46 10° NNE
Cosmos 1455 Rocket 3.5 19:44:43 40° E 19:44:44 40° E 19:48:54 10° NNE
SL-8 R/B 3.7 19:42:23 10° WSW 19:47:11 85° NNW 19:49:21 33° ENE
Cosmos 2366 rocket 4.2 19:43:26 10° N 19:49:37 50° ENE 19:52:02 34° SE
Cosmos 2297 Rocket 2.6 19:48:53 36° SE 19:49:42 38° ESE 19:54:54 10° NE
Cosmos 405 Rocket 3.0 19:54:00 46° NE 19:54:00 46° NE 19:56:51 10° NNE
ARGOS 3.1 19:49:52 21° SSE 19:53:35 84° WSW 19:59:00 10° NNW
USA 186 3.7 19:51:58 12° SSW 19:54:42 31° W 19:57:47 10° NNW
Meteor 1-24 Rocket 4.2 19:51:22 10° N 19:56:48 43° ENE 19:57:50 39° E
Resurs 01 Rocket 1.5 19:55:57 52° SE 19:56:52 68° ENE 20:01:18 10° N
Resurs 1-3 3.5 19:55:46 42° SSE 19:57:16 89° ENE 20:01:41 10° NNW
Spot 2 Rocket 3.8 19:57:18 42° E 19:57:56 44° ENE 20:02:42 10° N
USA 234 4.5 19:54:50 13° ENE 19:59:59 34° N 20:05:46 10° WNW
ERS-1 Rocket 4.4 20:00:25 22° NE 20:00:25 22° NE 20:03:51 10° NNE
SL-8 Rocket 3.9 19:55:31 10° N 20:01:44 76° E 20:04:44 33° SSE
Cosmos 2333 Rocket 3.3 19:58:39 10° NW 20:03:58 41° WSW 20:08:27 14° S
Cosmos 1140 Rocket 3.4 20:00:49 10° NNW 20:05:59 64° ENE 20:06:49 55° ESE
Meteor 2-5 Rocket 3.7 20:01:08 10° N 20:06:56 70° ENE 20:08:43 45° SE
Cosmos 1371 Rocket 3.9 20:02:42 10° SSW 20:07:59 80° ESE 20:13:22 10° NNE
H-2A R/B 2.5 20:06:40 22° S 20:09:46 56° W 20:14:42 10° NNW
SL-24 R/B 4.1 20:10:06 61° SSE 20:10:54 90° NE 20:15:42 10° NNW
ADEOS Rocket 3.5 20:09:15 10° NNE 20:16:28 82° WNW 20:24:10 10° SSW
Cosmos 1959 Rocket 4.3 20:10:51 10° N 20:16:59 81° E 20:19:02 45° SSE
Terra 3.9 20:18:42 15° NE 20:18:42 15° NE 20:20:27 10° NNE
Cosmos 2237 Rocket 2.2 20:13:35 10° NNW 20:19:18 78° WSW 20:20:51 49° S
MetOp-A 4.2 20:18:46 42° S 20:20:38 75° WSW 20:26:01 10° NNW
ATLAS 2AS CENTAUR R/B 3.6 20:13:42 10° NW 20:20:53 46° WSW 20:24:53 24° S
Cosmos 676 Rocket 3.8 20:18:19 10° NNW 20:23:37 73° ENE 20:23:53 71° E
Cosmos 1980 4.0 20:22:17 10° NNW 20:27:52 62° WSW 20:29:21 46° SSW
Meteor 1-22 Rocket 4.3 20:27:37 62° ESE 20:28:06 65° E 20:34:11 10° NNE
Cosmos 1674 4.0 20:29:39 10° N 20:31:52 34° NNW 20:31:52 34° NNW
CZ-2C R/B 3.9 20:45:09 38° SW 20:46:29 46° W 20:51:43 10° NNW
SL-16 R/B 2.2 20:42:06 10° NNW 20:47:27 70° NNE 20:47:27 70° NNE
SPOT 1/Viking Rocket 4.2 21:09:52 50° N 21:09:52 50° N 21:13:38 10° NNW
SPOT 5 4.2 21:11:43 33° N 21:11:43 33° N 21:14:30 10° N
CZ-2C R/B 3.1 21:10:06 10° N 21:14:46 60° NNW 21:14:46 60° NNW
BREEZE-M DEB (TANK) 4.3 21:16:59 10° WNW 21:22:20 88° NNE 21:24:37 59° ESE
Cosmos 2227 Rocket 3.0 21:20:30 35° WSW 21:22:20 47° WNW 21:27:49 10° NNE
Nadezhda 3 Rocket 4.3 21:25:13 60° N 21:25:13 60° N 21:30:15 10° N
Cosmos 2297 Rocket 3.5 21:30:18 19° WSW 21:33:45 38° NW 21:39:01 10° NNE
Resurs 01 Rocket 4.3 21:33:32 13° W 21:33:50 13° W 21:35:58 10° WNW
ERS-1 Rocket 4.4 21:40:25 34° NW 21:40:25 34° NW 21:43:26 10° NNW
USA 234 3.8 21:42:11 51° NNE 21:42:12 51° NNE 21:48:29 10° NW
Terra 4.0 21:57:36 23° NNW 21:57:36 23° NNW 21:59:27 10° NNW
CZ-4C R/B 3.9 23:07:34 10° NNW 23:12:51 39° NNE 23:12:51 39° NNE
Cosmos 2263 Rocket 4.4 23:39:47 21° N 23:39:47 21° N 23:41:53 10° NNE
